Orbital elements:
P/2006 Y2 = 2012 K9 (Gibbs)
Epoch 2012 June 2.0 TT = JDT 2456080.5
T 2012 May 20.86037 TT MPC
q 1.2633710 (2000.0) P Q
n 0.18405270 Peri. 34.48859 -0.75912895 -0.62187752
a 3.0608445 Node 105.87684 +0.54308322 -0.76796052
e 0.5872476 Incl. 11.53462 +0.35886468 -0.15331338
P 5.36
From 131 observations 2006 Nov. 10-2012 June 14